EW5196 Weather Reports


time (UTC)temp
C
wind
direction
speed
KPH
gust
KPH
rain 1hr
cm
rain 24hr
cm
rain mn
cm
humidity
%
barometer
mb
20260503232226 16 138 3.2 3.2 0.00 0.00 0.00 42 1017.1
20260503231724 16 138 3.2 3.2 0.00 0.00 0.00 36 1017.0
20260503231220 16 137 3.2 3.2 0.00 0.00 0.00 33 1017.1
20260503230717 16 134 3.2 3.2 0.00 0.00 0.00 34 1016.9
20260503230214 16 135 3.2 4.8 0.00 0.00 0.00 33 1016.9
20260503225711 16 161 3.2 4.8 0.00 0.00 0.00 33 1016.9
20260503225211 17 139 3.2 3.2 0.00 0.00 0.00 32 1016.8
20260503224709 17 140 4.8 4.8 0.00 0.00 0.00 31 1017.0
20260503224207 17 144 3.2 3.2 0.00 0.00 0.00 31 1017.0
20260503223704 17 148 1.6 6.4 0.00 0.00 0.00 28 1017.0
20260503223201 17 170 3.2 4.8 0.00 0.00 0.00 28 1017.0
20260503222658 17 164 3.2 8.0 0.00 0.00 0.00 28 1016.9
20260503222155 18 165 3.2 4.8 0.00 0.00 0.00 28 1017.2
20260503221654 18 146 1.6 4.8 0.00 0.00 0.00 26 1017.0
20260503221151 18 137 6.4 8.0 0.00 0.00 0.00 26 1017.2
20260503220648 18 134 3.2 6.4 0.00 0.00 0.00 26 1017.0
20260503220144 18 154 3.2 4.8 0.00 0.00 0.00 29 1017.3
20260503215641 17 153 4.8 8.0 0.00 0.00 0.00 28 1017.0
20260503215137 17 142 3.2 3.2 0.00 0.00 0.00 29 1017.3
20260503214637 17 138 3.2 4.8 0.00 0.00 0.00 28 1017.3
20260503214132 17 124 4.8 8.0 0.00 0.00 0.00 27 1017.2
20260503213626 17 163 4.8 8.0 0.00 0.00 0.00 27 1017.2
20260503213121 17 129 3.2 4.8 0.00 0.00 0.00 28 1017.2
20260503212620 17 118 3.2 9.7 0.00 0.00 0.00 27 1017.2
20260503212117 17 145 6.4 8.0 0.00 0.00 0.00 27 1017.4
20260503211615 17 180 6.4 8.0 0.00 0.00 0.00 25 1017.3
20260503211110 17 201 3.2 4.8 0.00 0.00 0.00 26 1017.3
20260503210606 17 142 4.8 9.7 0.00 0.00 0.00 26 1017.2
20260503205559 17 112 3.2 4.8 0.00 0.00 0.00 25 1017.2
20260503205055 17 209 4.8 8.0 0.00 0.00 0.00 24 1017.2
20260503204553 17 156 3.2 8.0 0.00 0.00 0.00 26 1017.3
20260503204050 17 139 3.2 9.7 0.00 0.00 0.00 29 1017.0
20260503203547 17 109 4.8 4.8 0.00 0.00 0.00 28 1016.9
20260503203044 17 131 1.6 4.8 0.00 0.00 0.00 30 1017.1
20260503202542 17 175 3.2 8.0 0.00 0.00 0.00 26 1017.2
20260503202039 17 131 3.2 6.4 0.00 0.00 0.00 26 1017.3
20260503201537 17 78 3.2 8.0 0.00 0.00 0.00 26 1017.2
20260503201034 17 166 4.8 9.7 0.00 0.00 0.00 26 1017.6
20260503200530 17 220 4.8 8.0 0.00 0.00 0.00 26 1017.5
20260503200027 17 149 4.8 6.4 0.00 0.00 0.00 25 1017.7
20260503195524 17 129 3.2 6.4 0.00 0.00 0.00 28 1017.8
20260503195021 18 188 4.8 9.7 0.00 0.00 0.00 26 1018.0
20260503194519 18 176 3.2 6.4 0.00 0.00 0.00 27 1017.8
20260503194018 18 158 3.2 8.0 0.00 0.00 0.00 25 1018.0
20260503193515 18 183 6.4 9.7 0.00 0.00 0.00 26 1018.0
20260503193010 17 223 8.0 11.3 0.00 0.00 0.00 25 1018.0
20260503192506 17 153 6.4 8.0 0.00 0.00 0.00 29 1018.1
20260503192002 17 79 4.8 4.8 0.00 0.00 0.00 30 1018.1
20260503191459 17 174 3.2 8.0 0.00 0.00 0.00 26 1018.3
20260503190955 17 131 8.0 8.0 0.00 0.00 0.00 27 1018.4
20260503190453 17 183 8.0 8.0 0.00 0.00 0.00 27 1018.4
20260503185950 17 78 3.2 12.9 0.00 0.00 0.00 26 1018.2
20260503185446 17 137 6.4 8.0 0.00 0.00 0.00 28 1018.5
20260503184946 17 230 8.0 9.7 0.00 0.00 0.00 29 1018.7
20260503184443 17 117 9.7 11.3 0.00 0.00 0.00 28 1018.4
20260503183939 16 146 4.8 17.7 0.00 0.00 0.00 28 1018.5
20260503183435 16 144 8.0 8.0 0.00 0.00 0.00 27 1018.6
20260503182933 16 126 6.4 11.3 0.00 0.00 0.00 28 1018.9
20260503182431 16 122 3.2 6.4 0.00 0.00 0.00 30 1018.8
20260503181929 16 172 3.2 4.8 0.00 0.00 0.00 30 1018.6
20260503181426 16 136 8.0 11.3 0.00 0.00 0.00 29 1018.9
20260503180921 16 151 3.2 8.0 0.00 0.00 0.00 30 1019.0
20260503180420 16 114 6.4 9.7 0.00 0.00 0.00 31 1018.8
20260503175916 16 118 4.8 8.0 0.00 0.00 0.00 32 1018.8
20260503175414 15 88 6.4 8.0 0.00 0.00 0.00 33 1018.8
20260503174910 16 114 6.4 12.9 0.00 0.00 0.00 31 1018.8
20260503174408 15 178 4.8 8.0 0.00 0.00 0.00 31 1018.8
20260503173903 15 163 4.8 8.0 0.00 0.00 0.00 30 1019.1
20260503173359 15 186 11.3 11.3 0.00 0.00 0.00 30 1018.9
20260503172856 15 246 3.2 9.7 0.00 0.00 0.00 28 1019.1
20260503172353 15 191 3.2 6.4 0.00 0.00 0.00 31 1018.9
20260503171849 15 123 6.4 8.0 0.00 0.00 0.00 32 1018.9
20260503171346 15 49 8.0 8.0 0.00 0.00 0.00 30 1018.9
20260503170844 15 131 8.0 9.7 0.00 0.00 0.00 31 1019.0
20260503170340 14 60 4.8 6.4 0.00 0.00 0.00 32 1019.0
20260503150732 12 161 4.8 6.4 0.00 0.00 0.00 34 1020.3
20260503150229 12 129 4.8 6.4 0.00 0.00 0.00 35 1020.5
20260503140153 11 139 11.3 14.5 0.00 0.00 0.00 33 1020.3
20260503131122 10 165 8.0 17.7 0.00 0.00 0.00 42 1020.2
20260503130620 10 240 6.4 14.5 0.00 0.00 0.00 44 1020.0
20260503130118 10 144 9.7 9.7 0.00 0.00 0.00 45 1020.2
20260503110510 3 123 3.2 6.4 0.00 0.00 0.00 88 1019.1
20260503090350 7 154 3.2 4.8 0.00 0.00 0.00 67 1017.3
20260503081317 8 159 3.2 8.0 0.00 0.00 0.00 56 1016.8
20260503080813 8 155 4.8 8.0 0.00 0.00 0.00 55 1016.7
20260503080311 9 141 1.6 6.4 0.00 0.00 0.00 55 1016.7
20260503072747 10 180 1.6 4.8 0.00 0.00 0.00 54 1016.4
20260503072244 10 178 4.8 6.4 0.00 0.00 0.00 53 1016.4
20260503071740 10 130 3.2 4.8 0.00 0.00 0.00 53 1016.2
20260503071238 10 140 3.2 8.0 0.00 0.00 0.00 52 1016.1
20260503070734 10 137 4.8 6.4 0.00 0.00 0.00 52 1016.1
20260503070232 10 134 3.2 11.3 0.00 0.00 0.00 52 1016.0
20260503060151 11 107 4.8 11.3 0.00 0.00 0.00 52 1015.5
20260503054638 11 145 1.6 6.4 0.00 0.00 0.00 54 1015.1
20260503054135 11 175 4.8 9.7 0.00 0.00 0.00 52 1015.5
20260503053633 11 171 4.8 8.0 0.00 0.00 0.00 53 1015.4
20260503053132 11 175 6.4 6.4 0.00 0.00 0.00 53 1015.5
20260503052627 11 140 3.2 4.8 0.00 0.00 0.00 55 1015.7
20260503052124 11 171 3.2 4.8 0.00 0.00 0.00 54 1015.6
20260503051619 11 167 3.2 8.0 0.00 0.00 0.00 55 1015.6
20260503051117 11 91 1.6 8.0 0.00 0.00 0.00 57 1015.5
20260503050614 11 155 3.2 6.4 0.00 0.00 0.00 58 1015.5
20260503050110 10 166 3.2 4.8 0.00 0.00 0.00 60 1015.4
20260503045608 10 161 4.8 6.4 0.00 0.00 0.00 64 1015.5
20260503045105 10 115 4.8 4.8 0.00 0.00 0.00 60 1015.4
20260503044601 10 142 3.2 4.8 0.00 0.00 0.00 65 1015.6
20260503044059 10 166 4.8 8.0 0.00 0.00 0.00 65 1015.3
20260503043555 10 139 4.8 4.8 0.00 0.00 0.00 69 1015.3
20260503043052 10 161 4.8 4.8 0.00 0.00 0.00 72 1015.3
20260503042549 10 137 3.2 4.8 0.00 0.00 0.00 74 1015.3
20260503042045 10 134 3.2 6.4 0.00 0.00 0.00 78 1015.1
20260503041542 10 161 3.2 3.2 0.00 0.00 0.00 79 1015.3
20260503041040 10 150 3.2 4.8 0.00 0.00 0.00 77 1015.2
20260503040537 10 142 3.2 3.2 0.00 0.00 0.00 79 1015.3
20260503040034 10 152 3.2 3.2 0.00 0.10 0.10 78 1015.1
20260503035531 10 144 3.2 4.8 0.00 0.10 0.10 81 1015.2
20260503035028 10 139 4.8 6.4 0.00 0.10 0.10 80 1015.1
20260503034525 10 116 3.2 3.2 0.00 0.10 0.10 77 1015.5
20260503034022 10 146 3.2 3.2 0.00 0.10 0.10 80 1015.3
20260503033520 10 145 3.2 4.8 0.00 0.10 0.10 80 1015.3
20260503033018 10 145 3.2 3.2 0.00 0.10 0.10 80 1015.3
20260503032516 10 137 3.2 4.8 0.00 0.10 0.10 80 1015.1
20260503032014 10 151 3.2 4.8 0.00 0.10 0.10 81 1015.4
20260503031511 10 142 3.2 4.8 0.00 0.10 0.10 79 1015.1
20260503031008 10 155 3.2 3.2 0.00 0.10 0.10 80 1015.2
20260503030504 10 138 3.2 4.8 0.00 0.10 0.10 81 1015.2
20260503030001 10 124 3.2 3.2 0.00 0.10 0.10 83 1015.1
20260503025458 10 134 3.2 3.2 0.00 0.10 0.10 81 1015.1
20260503024956 11 143 3.2 4.8 0.00 0.10 0.10 80 1015.1
20260503024451 11 139 3.2 3.2 0.00 0.10 0.10 75 1015.3
20260503023949 11 161 4.8 4.8 0.00 0.10 0.10 74 1015.2
20260503023446 11 151 3.2 4.8 0.00 0.10 0.10 74 1015.3
20260503022943 11 143 3.2 4.8 0.00 0.10 0.10 75 1015.3
20260503022437 11 150 4.8 4.8 0.00 0.10 0.10 75 1015.3
20260503021934 11 142 3.2 4.8 0.00 0.10 0.10 75 1015.2
20260503021430 11 149 3.2 4.8 0.00 0.10 0.10 75 1014.9
20260503020928 11 140 3.2 4.8 0.00 0.10 0.10 74 1015.2
20260503020425 11 148 3.2 4.8 0.00 0.10 0.10 71 1015.2
20260503015921 11 139 3.2 4.8 0.00 0.10 0.10 70 1015.1
20260503015418 11 122 3.2 3.2 0.00 0.10 0.10 70 1015.2
20260503014914 11 150 3.2 4.8 0.00 0.10 0.10 70 1014.9
20260503014412 11 161 3.2 4.8 0.00 0.10 0.10 72 1015.2
20260503013910 11 149 3.2 3.2 0.00 0.10 0.10 73 1015.2
20260503013406 11 148 4.8 4.8 0.00 0.10 0.10 74 1015.2
20260503012903 11 145 3.2 4.8 0.00 0.10 0.10 74 1014.9
20260503012401 11 145 3.2 4.8 0.00 0.10 0.10 72 1015.0
20260503011857 11 148 3.2 3.2 0.00 0.10 0.10 73 1014.9
20260503011355 11 144 4.8 4.8 0.00 0.10 0.10 75 1014.9
20260503010851 11 124 3.2 3.2 0.00 0.10 0.10 74 1014.9
20260503010348 11 144 3.2 4.8 0.00 0.10 0.10 69 1014.7
20260503005845 11 147 3.2 3.2 0.00 0.10 0.10 70 1014.7
20260503005343 11 142 3.2 3.2 0.00 0.10 0.10 69 1014.7
20260503004838 11 144 4.8 4.8 0.00 0.10 0.10 69 1014.6
20260503004336 12 144 3.2 4.8 0.00 0.10 0.10 67 1014.5
20260503003833 12 131 3.2 3.2 0.00 0.10 0.10 65 1014.4
20260503003330 12 160 3.2 4.8 0.00 0.10 0.10 65 1014.5
20260503002827 12 154 3.2 4.8 0.00 0.10 0.10 65 1014.3
20260503002324 12 141 4.8 4.8 0.00 0.10 0.10 65 1014.1
20260503001820 12 135 3.2 4.8 0.00 0.10 0.10 63 1014.1
20260503001317 12 144 3.2 4.8 0.00 0.10 0.10 62 1014.2
20260503000815 12 140 3.2 3.2 0.00 0.10 0.10 62 1014.3
20260503000312 12 147 4.8 4.8 0.00 0.10 0.10 59 1014.0
20260502235809 12 138 3.2 3.2 0.00 0.10 0.10 58 1013.9
20260502235306 13 159 3.2 4.8 0.00 0.10 0.10 57 1013.9
20260502234803 13 140 3.2 4.8 0.00 0.10 0.10 54 1013.7
20260502234300 13 136 3.2 4.8 0.00 0.10 0.10 49 1013.7
20260502233756 13 141 3.2 3.2 0.00 0.10 0.10 48 1013.5
20260502233253 14 133 3.2 3.2 0.00 0.10 0.10 48 1013.5
20260502232749 14 122 3.2 4.8 0.00 0.10 0.10 49 1013.7